Flag for U.S.A. Weather past 2 weeks in Lakewood, Colorado, U.S.A.

Now
73 °F

Passing clouds.


Feels Like: 73 °F
Forecast: 41 / 75 °F
Wind: 3 mph from North

Location: Centennial Airport

Current Time: Mar 31, 2015 at 4:25:12 PM

Latest Report: Mar 31, 2015 at 2:53 PM


Visibility: 10 mi

Pressure: 29.82 "Hg

Humidity: 10%

Dew point: 13 °F

Location of LakewoodLocation

Historic Weather in Lakewood — Graph

°F

Lakewood temperature yesterday

Maximum temperature yesterday: 71 °F (at 1:53 PM)
Minimum temperature yesterday: 38 °F (at 5:53 AM)
Average temperature yesterday: 55 °F

Past Weeks' High & Low Weather Summary

 TemperatureHumidityPressure
High76 °F (Mar 16, 3:53 PM)100% (Mar 19, 8:53 AM)30.35 "Hg (Mar 19, 8:53 AM)
Low28 °F (Mar 26, 6:53 AM)9% (Mar 30, 2:53 PM)29.65 "Hg (Mar 23, 4:53 PM)
Average50 °F46%30.03 "Hg
* Reported Mar 16 2:53 PM — Mar 31 2:53 PM, Lakewood, Weather by CustomWeather, © 2015

Note: Actual official high and low records may vary slightly from our data, if they occured in-between our weather recording intervals... More about our weather records

Advertising

Lakewood weather history for previous 24 hours

 ConditionsComfort  
Time TempWeatherWind HumidityBarometerVisibility
2:53 PM
Tue, Mar 31
73 °FPassing clouds.3 mph10%29.82 "Hg10 mi
1:53 PM72 °FPassing clouds.3 mph10%29.85 "Hg10 mi
12:53 PM72 °FPassing clouds.13 mph12%29.88 "Hg10 mi
11:53 AM69 °FPassing clouds.7 mph12%29.92 "Hg10 mi
10:53 AM68 °FPassing clouds.8 mph14%29.92 "Hg10 mi
9:53 AM64 °FPassing clouds.6 mph18%29.97 "Hg10 mi
8:53 AM59 °FSunny.6 mph23%29.97 "Hg10 mi
7:53 AM47 °FSunny.3 mph44%30.02 "Hg10 mi
6:53 AM41 °FPassing clouds.5 mph45%30.01 "Hg10 mi
5:53 AM41 °FClear.6 mph45%29.99 "Hg10 mi
4:53 AM39 °FClear.8 mph50%29.99 "Hg10 mi
3:53 AM42 °FClear.5 mph43%29.98 "Hg10 mi
2:53 AM41 °FClear.3 mph49%30.01 "Hg10 mi
1:53 AM43 °FClear.6 mph45%30.02 "Hg10 mi
12:53 AM45 °FClear.5 mph40%30.02 "Hg10 mi
11:53 PM
Mon, Mar 30
46 °FClear.8 mph44%30.03 "Hg10 mi
10:53 PM54 °FClear.3 mph22%30.03 "Hg10 mi
9:53 PM50 °FPassing clouds.7 mph33%30.06 "Hg10 mi
8:53 PM56 °FPassing clouds.6 mph28%30.04 "Hg10 mi
7:53 PM57 °FPassing clouds.6 mph27%30.05 "Hg10 mi
6:53 PM65 °FScattered clouds.6 mph18%30.00 "Hg10 mi
5:53 PM68 °FScattered clouds.8 mph15%29.99 "Hg10 mi
4:53 PM71 °FScattered clouds.22 mph10%29.94 "Hg10 mi
Weather by CustomWeather, © 2015

See weather overviewHow to use our weather pages